Weather History for KTPA - November, 2013

Change the Weather History Date:

Thursday, November 21, 2013

  Actual Average Record
Temperature  
Mean Temperature 78 °F 68 °F  
Max Temperature 85 °F 77 °F 86 °F (1948)
Min Temperature 70 °F 59 °F 32 °F (1914)
Degree Days  
Heating Degree Days 0 2  
Month to date heating degree days 5 22  
Since 1 July heating degree days 5 26  
Cooling Degree Days 13 5  
Month to date cooling degree days 163 128  
Year to date cooling degree days 3704 3494  
Growing Degree Days 26 (Base 50)    
Moisture  
Dew Point 68 °F    
Average Humidity 74    
Maximum Humidity 90    
Minimum Humidity 58    
Precipitation  
Precipitation 0.00 in 0.05 in 1.39 in (1912)
Month to date precipitation 0.77 1.05  
Year to date precipitation 51.48 43.33  
Sea Level Pressure  
Sea Level Pressure 30.15 in    
Wind  
Wind Speed 7 mph (ENE)    
Max Wind Speed 15 mph    
Max Gust Speed 24 mph    
Visibility 10 miles    
Events      
T = Trace of Precipitation, MM = Missing Value Source: NWS Daily Summary

Daily Weather History Graph

Daily Weather History Graph

Search for Another Location

Airport or City:

Trip Planner

Search our weather history database for the weather conditions in past years. The results will help you decide how hot, cold, wet, or windy it might be!

Date:

Astronomy

Nov. 21, 2013 Rise Set
Actual Time 6:56 AM EST 5:35 PM EST
Civil Twilight 6:31 AM EST 6:00 PM EST
Nautical Twilight 6:02 AM EST 6:29 PM EST
Astronomical Twilight 5:34 AM EST 6:57 PM EST
Moon 9:08 PM EST (11/21) 10:03 AM EST (11/21)
Length of Visible Light 11h 29m
Length of Day
10h 38m
Waning Gibbous, 85% of the Moon is Illuminated
Nov 21
Waning Gibbous
Nov 25
Last Quarter
Dec 2
New
Dec 9
First Quarter
Dec 17
Full

Hourly Weather History & Observations

Time (EST) Temp. Heat Index Dew Point Humidity Pressure Visibility Wind Dir Wind Speed Gust Speed Precip Events Conditions
12:53 AM 72.0 °F - 68.0 °F 87% 30.11 in 10.0 mi ENE 6.9 mph - N/A   Mostly Cloudy
1:53 AM 72.0 °F - 68.0 °F 87% 30.10 in 10.0 mi ENE 3.5 mph - N/A   Mostly Cloudy
2:53 AM 71.1 °F - 68.0 °F 90% 30.11 in 10.0 mi NE 6.9 mph - N/A   Mostly Cloudy
3:53 AM 71.1 °F - 68.0 °F 90% 30.11 in 10.0 mi NE 4.6 mph - N/A   Mostly Cloudy
4:53 AM 71.1 °F - 68.0 °F 90% 30.12 in 10.0 mi NE 6.9 mph - N/A   Overcast
5:53 AM 71.1 °F - 68.0 °F 90% 30.13 in 10.0 mi NE 6.9 mph - N/A   Mostly Cloudy
6:53 AM 71.1 °F - 66.9 °F 87% 30.15 in 10.0 mi NNE 5.8 mph - N/A   Mostly Cloudy
7:38 AM 69.8 °F - 66.2 °F 88% 30.16 in 10.0 mi NE 5.8 mph - N/A   Scattered Clouds
7:53 AM 70.0 °F - 66.9 °F 90% 30.16 in 10.0 mi NNE 6.9 mph - N/A   Scattered Clouds
8:53 AM 73.9 °F - 66.9 °F 79% 30.17 in 10.0 mi NE 5.8 mph - N/A   Scattered Clouds
9:53 AM 78.1 °F - 68.0 °F 71% 30.18 in 10.0 mi Variable 5.8 mph - N/A   Scattered Clouds
10:46 AM 78.8 °F - 68.0 °F 69% 30.18 in 10.0 mi East 6.9 mph - N/A   Mostly Cloudy
10:53 AM 79.0 °F - 68.0 °F 69% 30.18 in 10.0 mi ENE 9.2 mph - N/A   Mostly Cloudy
11:06 AM 78.8 °F - 68.0 °F 69% 30.17 in 10.0 mi East 6.9 mph - N/A   Scattered Clouds
11:53 AM 80.1 °F 82.7 °F 68.0 °F 67% 30.15 in 10.0 mi ENE 9.2 mph - N/A   Mostly Cloudy
12:53 PM 81.0 °F 83.3 °F 66.9 °F 62% 30.14 in 10.0 mi Variable 6.9 mph 16.1 mph N/A   Mostly Cloudy
1:53 PM 82.9 °F 85.4 °F 66.9 °F 58% 30.12 in 10.0 mi ENE 8.1 mph - N/A   Mostly Cloudy
2:53 PM 82.0 °F 84.9 °F 68.0 °F 62% 30.11 in 10.0 mi NE 10.4 mph 17.3 mph N/A   Mostly Cloudy
3:53 PM 80.1 °F 82.9 °F 69.1 °F 69% 30.12 in 10.0 mi ENE 8.1 mph - N/A   Mostly Cloudy
4:53 PM 77.0 °F - 68.0 °F 74% 30.14 in 10.0 mi ENE 12.7 mph 24.2 mph N/A   Mostly Cloudy
5:53 PM 75.0 °F - 68.0 °F 79% 30.15 in 10.0 mi ENE 12.7 mph 19.6 mph N/A   Mostly Cloudy
6:53 PM 73.9 °F - 68.0 °F 82% 30.17 in 10.0 mi ENE 10.4 mph 18.4 mph N/A   Overcast
7:53 PM 73.0 °F - 68.0 °F 84% 30.18 in 10.0 mi ENE 4.6 mph - N/A   Overcast
8:53 PM 73.0 °F - 66.9 °F 81% 30.19 in 10.0 mi ENE 8.1 mph - N/A   Scattered Clouds
9:37 PM 73.4 °F - 68.0 °F 83% 30.20 in 10.0 mi Variable 5.8 mph - N/A   Mostly Cloudy
9:50 PM 73.4 °F - 68.0 °F 83% 30.20 in 10.0 mi ENE 4.6 mph - N/A   Overcast
9:53 PM 73.0 °F - 68.0 °F 84% 30.20 in 10.0 mi Variable 4.6 mph - N/A   Overcast
10:53 PM 73.0 °F - 68.0 °F 84% 30.20 in 10.0 mi ENE 5.8 mph - N/A   Overcast
11:53 PM 73.0 °F - 68.0 °F 84% 30.19 in 10.0 mi ENE 3.5 mph - N/A   Overcast